Location: Limerick
(52.6650°N, 8.6230°W)
Time: 19:45:43
(UTC+01:00)

ISS - Pass Details

Date: 20 July 2017
Orbit: 400 x 408 km, 51.6° (Epoch: 21 July)

Event Time Altitude Azimuth Distance (km) Brightness Sun altitude
Exits shadow 03:25:27 - 268° (W) 1,706 -0.9 -13.3°
Reaches altitude 10° 03:26:03 10° 267° (W) 1,455 -1.3 -13.2°
Maximum altitude 03:29:19 75° 182° (S) 420 -4.0 -13.0°
Drops below altitude 10° 03:32:34 10° 97° (E) 1,458 -0.8 -12.8°
Sets 03:34:39 0° 96° (E) 2,318 0.3 -12.6°
